Location: Brodeslavy
(49.9527°N, 13.5567°E)
Time: 18:17:05
(UTC+00:00)

Cosmos 304 Rocket - Pass Details

Date: 17 June 2025
Orbit: 669 x 678 km, 74.0° (Epoch: 12 July)

Event Time Altitude Azimuth Distance (km) Brightness Sun altitude
Exits shadow 23:26:37 30° 189° (S) 1,204 4.4 -16.5°
Maximum altitude 23:28:56 73° 111° (ESE) 709 3.7 -16.5°
Drops below altitude 10° 23:33:42 10° 27° (NNE) 2,121 7.4 -16.4°
Sets 23:36:00 0° 26° (NNE) 3,042 8.5 -16.4°
